This demonstration page uses our WeatherBlox Daily Observations layout. Learn more.

Left ArrowRight Arrow

53.62937, 11.41316

Hourly Observations for December 21, 2021

Temp ( °F °C ) Dew Point ( °F °C ) Humidity (%) Winds ( mph kmh ) Pressure ( in mb ) Visibility ( mi km ) Precip ( " mm )
12:20 am 00:20 Mostly Clear 27 -3 27 -3 100 100 SW 2 4 30.33 1027 30 48 N/A
12:50 am 00:50 Mostly Clear 27 -3 27 -3 100 100 SW 2 4 30.33 1027 1 1 N/A
1:20 am 01:20 Mostly Clear 27 -3 27 -3 100 100 VRB 2 4 30.33 1027 1 2 N/A
1:50 am 01:50 Mostly Clear 27 -3 27 -3 100 100 VRB 2 4 30.33 1027 1 2 N/A
2:20 am 02:20 Mostly Clear 27 -3 27 -3 100 100 VRB 1 2 30.33 1027 2 4 N/A
2:50 am 02:50 Mostly Clear 25 -4 25 -4 100 100 SW 2 4 30.33 1027 0 1 N/A
3:20 am 03:20 Mostly Clear 25 -4 25 -4 100 100 VRB 1 2 30.30 1026 1 1 N/A
3:50 am 03:50 Mostly Clear 25 -4 25 -4 100 100 VRB 1 2 30.30 1026 0 1 N/A
4:20 am 04:20 Mostly Clear 25 -4 23 -5 93 93 Calm 30.30 1026 0 1 N/A
4:50 am 04:50 Mostly Clear 23 -5 23 -5 100 100 VRB 2 4 30.30 1026 5 8 N/A
5:20 am 05:20 Mostly Clear 23 -5 23 -5 100 100 WSW 2 4 30.30 1026 4 6 N/A
5:50 am 05:50 Mostly Clear 23 -5 23 -5 100 100 VRB 1 2 30.30 1026 1 2 N/A
6:20 am 06:20 Mostly Clear 25 -4 23 -5 93 93 SW 3 6 30.30 1026 7 11 N/A
6:50 am 06:50 Mostly Clear 23 -5 23 -5 100 100 VRB 2 4 30.30 1026 6 9 N/A
7:20 am 07:20 Mostly Clear with Freezing Fog 23 -5 23 -5 100 100 VRB 2 4 30.30 1026 5 8 N/A
7:50 am 07:50 Mostly Clear 23 -5 21 -6 93 93 Calm 30.30 1026 6 9 N/A
8:20 am 08:20 Mostly Clear with Freezing Fog 23 -5 21 -6 93 93 VRB 1 2 30.30 1026 6 9 N/A
8:50 am 08:50 Mostly Sunny 23 -5 23 -5 100 100 VRB 2 4 30.30 1026 6 9 N/A
9:20 am 09:20 Mostly Sunny 25 -4 23 -5 93 93 VRB 1 2 30.30 1026 6 9 N/A
10:20 am 10:20 Mostly Sunny 30 -1 28 -2 93 93 Calm 30.30 1026 7 11 N/A
10:50 am 10:50 Mostly Sunny 30 -1 28 -2 93 93 VRB 2 4 30.33 1027 7 11 N/A
11:20 am 11:20 Mostly Sunny 30 -1 28 -2 93 93 VRB 2 4 30.33 1027 7 11 N/A
11:50 am 11:50 Mostly Sunny 30 -1 28 -2 93 93 VRB 2 4 30.33 1027 7 11 N/A
12:20 pm 12:20 Mostly Sunny 32 0 30 -1 93 93 VRB 1 2 30.30 1026 7 11 N/A
12:50 pm 12:50 Mostly Sunny 34 1 30 -1 87 87 VRB 2 4 30.30 1026 7 11 N/A
1:20 pm 13:20 Mostly Sunny 34 1 30 -1 87 87 VRB 2 4 30.30 1026 7 11 N/A
1:50 pm 13:50 Mostly Sunny 36 2 32 0 87 87 VRB 1 2 30.30 1026 7 11 N/A
2:20 pm 14:20 Mostly Sunny 34 1 32 0 93 93 Calm 30.30 1026 7 11 N/A
2:50 pm 14:50 Mostly Sunny 34 1 32 0 93 93 VRB 2 4 30.30 1026 7 11 N/A
3:20 pm 15:20 Mostly Sunny 32 0 30 -1 93 93 W 3 6 30.30 1026 7 11 N/A
3:50 pm 15:50 Mostly Sunny 32 0 30 -1 93 93 W 2 4 30.30 1026 7 11 N/A
4:20 pm 16:20 Mostly Clear 30 -1 28 -2 93 93 VRB 1 2 30.30 1026 7 11 N/A
4:50 pm 16:50 Mostly Clear with Mist and Fog 28 -2 28 -2 100 100 Calm 30.30 1026 1 1 N/A
5:20 pm 17:20 Mostly Clear with Freezing Fog 28 -2 27 -3 93 93 SSE 1 2 30.30 1026 0 0 N/A
5:50 pm 17:50 Mostly Clear with Freezing Fog 27 -3 27 -3 100 100 SSE 2 4 30.30 1026 0 1 N/A
6:20 pm 18:20 Partly Cloudy with Freezing Fog 25 -4 25 -4 100 100 VRB 1 2 30.30 1026 0 1 N/A
6:50 pm 18:50 Mostly Clear with Freezing Fog 25 -4 25 -4 100 100 VRB 1 2 30.30 1026 0 0 N/A
7:20 pm 19:20 Mostly Clear with Freezing Fog 23 -5 23 -5 100 100 VRB 2 4 30.30 1026 0 0 N/A
7:50 pm 19:50 Mostly Clear 27 -3 25 -4 93 93 VRB 2 4 30.30 1026 4 6 N/A
8:20 pm 20:20 Mostly Clear with Freezing Fog 25 -4 25 -4 100 100 VRB 1 2 30.30 1026 0 1 N/A
8:50 pm 20:50 Mostly Clear with Mist and Fog 25 -4 25 -4 100 100 VRB 1 2 30.30 1026 3 4 N/A
9:20 pm 21:20 Partly Cloudy 28 -2 28 -2 100 100 SSW 3 6 30.30 1026 4 6 N/A
9:50 pm 21:50 Mostly Cloudy 28 -2 28 -2 100 100 S 5 7 30.30 1026 6 9 N/A
10:20 pm 22:20 Mostly Cloudy 28 -2 27 -3 93 93 VRB 2 4 30.30 1026 30 48 N/A
10:50 pm 22:50 Mostly Cloudy 28 -2 27 -3 93 93 VRB 1 2 30.30 1026 30 48 N/A
11:20 pm 23:20 Mostly Cloudy 27 -3 27 -3 100 100 SE 3 6 30.30 1026 30 48 N/A
11:50 pm 23:50 Mostly Cloudy 28 -2 27 -3 93 93 VRB 2 4 30.30 1026 30 48 N/A

Powered by AerisWeather